,,Stat6,,Stat2,,Stat8,,Stat9,,Stat10,,Wind1,,Wind1,
time,status,PA1M_AVG,status,PR1M_SUM,status,RH1M_AVG,status,SR1M_AVG,status,TA1M_AVG,status,W1dAve1m,status,W1sAve1m,
2004-09-22, 00:00:00,VALID,918.156,VALID,0,VALID,84.4905,VALID,0.0169808,VALID,21.4636,VALID,60,VALID,0.874256,
2004-09-22, 00:01:00,VALID,918.153,VALID,0,VALID,84.474,VALID,0.0169808,VALID,21.434,VALID,85,VALID,1.375,
2004-09-22, 00:02:00,VALID,918.165,VALID,0,VALID,84.582,VALID,0,VALID,21.4114,VALID,51,VALID,1.28408,
2004-09-22, 00:03:00,VALID,918.132,VALID,0,VALID,84.5477,VALID,0.0509425,VALID,21.4187,VALID,9,VALID,0.629764,
2004-09-22, 00:04:00,VALID,918.138,VALID,0,VALID,84.7919,VALID,0.0169808,VALID,21.399,VALID,116,VALID,1.26637,
2004-09-22, 00:05:00,VALID,918.142,VALID,0,VALID,85.0869,VALID,0,VALID,21.3573,VALID,126,VALID,0.958939,
2004-09-22, 00:06:00,VALID,918.126,VALID,0,VALID,85.2929,VALID,-0.0169808,VALID,21.3091,VALID,96,VALID,1.33293,
2004-09-22, 00:07:00,VALID,918.097,VALID,0,VALID,84.7613,VALID,0,VALID,21.2994,VALID,75,VALID,2.00363,
2004-09-22, 00:08:00,VALID,918.084,VALID,0,VALID,84.5693,VALID,0,VALID,21.328,VALID,58,VALID,2.05851,
2004-09-22, 00:09:00,VALID,918.08,VALID,0,VALID,84.7041,VALID,0,VALID,21.357,VALID,84,VALID,0.974657,
2004-09-22, 00:10:00,VALID,918.052,VALID,0,VALID,84.9089,VALID,0,VALID,21.3511,VALID,88,VALID,0.561198,
2004-09-22, 00:11:00,VALID,918.003,VALID,0,VALID,84.8186,VALID,0,VALID,21.3153,VALID,71,VALID,1.08757,
2004-09-22, 00:12:00,VALID,917.996,VALID,0,VALID,84.8173,VALID,0,VALID,21.3123,VALID,52,VALID,1.43807,
2004-09-22, 00:13:00,VALID,917.959,VALID,0,VALID,84.5375,VALID,-0.0169808,VALID,21.3056,VALID,64,VALID,1.89683,
2004-09-22, 00:14:00,VALID,917.932,VALID,0,VALID,84.24,VALID,-0.0169808,VALID,21.3245,VALID,54,VALID,2.49273,
2004-09-22, 00:15:00,VALID,917.942,VALID,0,VALID,83.8928,VALID,0,VALID,21.4052,VALID,62,VALID,2.1217,
2004-09-22, 00:16:00,VALID,917.933,VALID,0,VALID,83.9132,VALID,0,VALID,21.4251,VALID,57,VALID,1.91282,
2004-09-22, 00:17:00,VALID,917.918,VALID,0,VALID,83.842,VALID,-0.0169808,VALID,21.4025,VALID,56,VALID,1.72796,
2004-09-22, 00:18:00,VALID,917.885,VALID,0,VALID,83.6996,VALID,0,VALID,21.4128,VALID,32,VALID,2.48678,
2004-09-22, 00:19:00,VALID,917.833,VALID,0,VALID,83.3867,VALID,-0.0169808,VALID,21.4607,VALID,28,VALID,3.47675,
2004-09-22, 00:20:00,VALID,917.823,VALID,0,VALID,83.1172,VALID,0.0169808,VALID,21.5676,VALID,55,VALID,3.13068,
2004-09-22, 00:21:00,VALID,917.847,VALID,0,VALID,83.3855,VALID,0.0169808,VALID,21.5576,VALID,84,VALID,1.81086,
2004-09-22, 00:22:00,VALID,917.824,VALID,0,VALID,83.3257,VALID,0,VALID,21.5385,VALID,77,VALID,2.19132,
2004-09-22, 00:23:00,VALID,917.822,VALID,0,VALID,83.3232,VALID,0,VALID,21.5517,VALID,38,VALID,1.38783,
2004-09-22, 00:24:00,VALID,917.805,VALID,0,VALID,83.1426,VALID,-0.0169808,VALID,21.567,VALID,57,VALID,2.69792,
2004-09-22, 00:25:00,VALID,917.786,VALID,0,VALID,82.9913,VALID,-0.0169808,VALID,21.6125,VALID,55,VALID,1.99637,
2004-09-22, 00:26:00,VALID,917.786,VALID,0,VALID,83.0816,VALID,-0.0169808,VALID,21.6155,VALID,91,VALID,1.56962,
2004-09-22, 00:27:00,VALID,917.777,VALID,0,VALID,83.2481,VALID,0,VALID,21.577,VALID,83,VALID,1.57124,
2004-09-22, 00:28:00,VALID,917.745,VALID,0,VALID,83.3079,VALID,0,VALID,21.5414,VALID,59,VALID,2.43936,
2004-09-22, 00:29:00,VALID,917.73,VALID,0,VALID,83.3982,VALID,0.0169808,VALID,21.5253,VALID,66,VALID,2.17844,
2004-09-22, 00:30:00,VALID,917.712,VALID,0,VALID,83.5355,VALID,0.0169808,VALID,21.4895,VALID,58,VALID,1.69985,
2004-09-22, 00:31:00,VALID,917.711,VALID,0,VALID,83.9272,VALID,0,VALID,21.4733,VALID,126,VALID,1.29173,
2004-09-22, 00:32:00,VALID,917.686,VALID,0,VALID,83.9462,VALID,0,VALID,21.441,VALID,64,VALID,1.62827,
2004-09-22, 00:33:00,VALID,917.659,VALID,0,VALID,83.9323,VALID,0,VALID,21.3896,VALID,59,VALID,1.98977,
2004-09-22, 00:34:00,VALID,917.634,VALID,0,VALID,83.5063,VALID,-0.0169808,VALID,21.3993,VALID,70,VALID,2.32122,
2004-09-22, 00:35:00,VALID,917.616,VALID,0,VALID,82.9341,VALID,0,VALID,21.4545,VALID,46,VALID,2.46875,
2004-09-22, 00:36:00,VALID,917.614,VALID,0,VALID,82.9633,VALID,0,VALID,21.4965,VALID,65,VALID,1.27305,
2004-09-22, 00:37:00,VALID,917.59,VALID,0,VALID,83.2024,VALID,-0.0169808,VALID,21.4935,VALID,79,VALID,2.16178,
2004-09-22, 00:38:00,VALID,917.583,VALID,0,VALID,83.4223,VALID,0,VALID,21.4405,VALID,51,VALID,2.22348,
2004-09-22, 00:39:00,VALID,917.586,VALID,0,VALID,83.0688,VALID,0,VALID,21.4448,VALID,85,VALID,1.93211,
2004-09-22, 00:40:00,VALID,917.601,VALID,0,VALID,83.4338,VALID,0,VALID,21.4472,VALID,73,VALID,1.6998,
2004-09-22, 00:41:00,VALID,917.584,VALID,0,VALID,83.8394,VALID,-0.0339617,VALID,21.402,VALID,78,VALID,1.01963,
2004-09-22, 00:42:00,VALID,917.568,VALID,0,VALID,84.0086,VALID,-0.0339617,VALID,21.3737,VALID,89,VALID,1.03409,
2004-09-22, 00:43:00,VALID,917.552,VALID,0,VALID,84.1421,VALID,-0.0509425,VALID,21.3455,VALID,92,VALID,1.28325,
2004-09-22, 00:44:00,VALID,917.525,VALID,0,VALID,83.8165,VALID,-0.0509425,VALID,21.3288,VALID,76,VALID,1.33092,
2004-09-22, 00:45:00,VALID,917.53,VALID,0,VALID,83.8839,VALID,-0.0679233,VALID,21.3218,VALID,55,VALID,0.886979,
2004-09-22, 00:46:00,VALID,917.498,VALID,0,VALID,84.1942,VALID,-0.0169808,VALID,21.3027,VALID,104,VALID,0.747514,
2004-09-22, 00:47:00,VALID,917.483,VALID,0,VALID,84.4968,VALID,-0.0169808,VALID,21.28,VALID,66,VALID,1.52902,
2004-09-22, 00:48:00,VALID,917.47,VALID,0,VALID,84.6952,VALID,0,VALID,21.2507,VALID,48,VALID,1.21689,
2004-09-22, 00:49:00,VALID,917.454,VALID,0,VALID,84.6164,VALID,-0.0339617,VALID,21.2022,VALID,42,VALID,1.87157,
2004-09-22, 00:50:00,VALID,917.442,VALID,0,VALID,84.2781,VALID,-0.0169808,VALID,21.2017,VALID,57,VALID,1.4435,
2004-09-22, 00:51:00,VALID,917.443,VALID,0,VALID,84.2934,VALID,-0.0169808,VALID,21.2149,VALID,52,VALID,1.30578,
2004-09-22, 00:52:00,VALID,917.438,VALID,0,VALID,84.2349,VALID,-0.0509425,VALID,21.2219,VALID,69,VALID,1.12882,
2004-09-22, 00:53:00,VALID,917.415,VALID,0,VALID,83.6729,VALID,-0.0509425,VALID,21.2246,VALID,72,VALID,2.19029,
2004-09-22, 00:54:00,VALID,917.413,VALID,0,VALID,83.4465,VALID,-0.0339617,VALID,21.2542,VALID,84,VALID,2.00335,
2004-09-22, 00:55:00,VALID,917.42,VALID,0,VALID,83.4592,VALID,-0.0509425,VALID,21.2865,VALID,51,VALID,1.8125,
2004-09-22, 00:56:00,VALID,917.41,VALID,0,VALID,83.3537,VALID,-0.0509425,VALID,21.2992,VALID,63,VALID,1.73438,
2004-09-22, 00:57:00,VALID,917.398,VALID,0,VALID,83.5482,VALID,-0.0169808,VALID,21.3027,VALID,42,VALID,1.30614,
2004-09-22, 00:58:00,VALID,917.39,VALID,0,VALID,83.7517,VALID,-0.0169808,VALID,21.2671,VALID,53,VALID,0.967862,
2004-09-22, 00:59:00,VALID,917.383,VALID,0,VALID,83.7237,VALID,-0.0169808,VALID,21.2445,VALID,69,VALID,1.68628,
2004-09-22, 01:00:00,VALID,917.352,VALID,0,VALID,83.6385,VALID,-0.0679233,VALID,21.2448,VALID,51,VALID,2.2407,
2004-09-22, 01:01:00,VALID,917.333,VALID,0,VALID,83.271,VALID,-0.0169808,VALID,21.2671,VALID,45,VALID,2.63867,
2004-09-22, 01:02:00,VALID,917.321,VALID,0,VALID,82.9747,VALID,-0.0339617,VALID,21.2994,VALID,64,VALID,2.09617,
2004-09-22, 01:03:00,VALID,917.327,VALID,0,VALID,82.9366,VALID,-0.0679233,VALID,21.3188,VALID,67,VALID,1.60701,
2004-09-22, 01:04:00,VALID,917.306,VALID,0,VALID,83.0421,VALID,-0.0509425,VALID,21.3352,VALID,62,VALID,1.15253,
2004-09-22, 01:05:00,VALID,917.31,VALID,0,VALID,83.2189,VALID,-0.0509425,VALID,21.3193,VALID,39,VALID,1.78569,
2004-09-22, 01:06:00,VALID,917.28,VALID,0,VALID,82.8527,VALID,-0.0509425,VALID,21.3094,VALID,36,VALID,2.1449,
2004-09-22, 01:07:00,VALID,917.275,VALID,0,VALID,82.5818,VALID,-0.0679233,VALID,21.3516,VALID,55,VALID,2.26651,
2004-09-22, 01:08:00,VALID,917.242,VALID,0,VALID,82.035,VALID,-0.0509425,VALID,21.4033,VALID,51,VALID,3.25854,
2004-09-22, 01:09:01,VALID,917.254,VALID,0,VALID,81.6472,VALID,-0.0509425,VALID,21.4935,VALID,44,VALID,2.98492,
2004-09-22, 01:10:00,VALID,917.271,VALID,0,VALID,81.8913,VALID,-0.0849042,VALID,21.5005,VALID,60,VALID,1.87128,
2004-09-22, 01:11:00,VALID,917.265,VALID,0,VALID,82.0757,VALID,0.0679233,VALID,21.4634,VALID,33,VALID,2.26799,
2004-09-22, 01:12:00,VALID,917.243,VALID,0,VALID,82.2029,VALID,0.0339617,VALID,21.4405,VALID,25,VALID,2.41903,
2004-09-22, 01:13:00,VALID,917.243,VALID,0,VALID,82.6454,VALID,0.0339617,VALID,21.4015,VALID,49,VALID,1.35528,
2004-09-22, 01:14:00,VALID,917.248,VALID,0,VALID,82.6251,VALID,0.0339617,VALID,21.363,VALID,57,VALID,2.23008,
2004-09-22, 01:15:00,VALID,917.22,VALID,0,VALID,82.3936,VALID,0.0169808,VALID,21.3468,VALID,55,VALID,3.08727,
2004-09-22, 01:16:00,VALID,917.205,VALID,0,VALID,81.5696,VALID,0.0339617,VALID,21.3724,VALID,69,VALID,3.81864,
2004-09-22, 01:17:00,VALID,917.215,VALID,0,VALID,81.1894,VALID,0.0849042,VALID,21.4884,VALID,50,VALID,2.48556,
2004-09-22, 01:18:00,VALID,917.198,VALID,0,VALID,81.3217,VALID,0.0679233,VALID,21.5309,VALID,79,VALID,2.50581,
2004-09-22, 01:19:00,VALID,917.194,VALID,0,VALID,81.5353,VALID,0.0339617,VALID,21.4984,VALID,55,VALID,2.20206,
2004-09-22, 01:20:00,VALID,917.195,VALID,0,VALID,81.4908,VALID,0.0509425,VALID,21.4658,VALID,82,VALID,2.01228,
2004-09-22, 01:21:00,VALID,917.179,VALID,0,VALID,81.5175,VALID,0.0849042,VALID,21.4593,VALID,70,VALID,2.74405,
2004-09-22, 01:22:00,VALID,917.186,VALID,0,VALID,81.4717,VALID,0.0679233,VALID,21.4531,VALID,40,VALID,2.80778,
2004-09-22, 01:23:01,VALID,917.204,VALID,0,VALID,81.3458,VALID,0.0509425,VALID,21.4367,VALID,77,VALID,2.70909,
2004-09-22, 01:24:01,VALID,917.184,VALID,0,VALID,81.4844,VALID,0.0679233,VALID,21.4531,VALID,73,VALID,2.02248,
2004-09-22, 01:25:00,VALID,917.162,VALID,0,VALID,81.5213,VALID,0.0509425,VALID,21.4109,VALID,68,VALID,2.10067,
2004-09-22, 01:26:00,VALID,917.17,VALID,0,VALID,81.3738,VALID,-0.0679233,VALID,21.4066,VALID,76,VALID,2.88809,
2004-09-22, 01:27:01,VALID,917.148,VALID,0,VALID,81.0152,VALID,-0.0169808,VALID,21.4128,VALID,72,VALID,3.35902,
2004-09-22, 01:28:00,VALID,917.107,VALID,0,VALID,80.6706,VALID,-0.0509425,VALID,21.4381,VALID,54,VALID,4.00327,
2004-09-22, 01:29:00,VALID,917.096,VALID,0,VALID,79.9725,VALID,-0.0509425,VALID,21.5355,VALID,58,VALID,3.61685,
2004-09-22, 01:30:00,VALID,917.094,VALID,0,VALID,79.8847,VALID,-0.0679233,VALID,21.6001,VALID,68,VALID,3.3043,
2004-09-22, 01:31:00,VALID,917.121,VALID,0,VALID,80.0055,VALID,-0.0679233,VALID,21.6098,VALID,64,VALID,2.48847,
2004-09-22, 01:32:00,VALID,917.123,VALID,0,VALID,80.2675,VALID,-0.0509425,VALID,21.5805,VALID,80,VALID,3.26385,
2004-09-22, 01:33:00,VALID,917.125,VALID,0,VALID,80.8435,VALID,-0.0169808,VALID,21.5355,VALID,113,VALID,2.26265,
2004-09-22, 01:34:00,VALID,917.126,VALID,0,VALID,81.3229,VALID,-0.0339617,VALID,21.461,VALID,44,VALID,1.87118,
2004-09-22, 01:35:00,VALID,917.1,VALID,0,VALID,81.7426,VALID,-0.0509425,VALID,21.3869,VALID,92,VALID,1.87447,
2004-09-22, 01:36:01,VALID,917.089,VALID,0,VALID,81.8672,VALID,-0.0849042,VALID,21.3352,VALID,80,VALID,1.52009,
2004-09-22, 01:37:00,VALID,917.064,VALID,0,VALID,82.2601,VALID,-0.101885,VALID,21.3029,VALID,104,VALID,1.01864,
2004-09-22, 01:38:00,VALID,917.046,VALID,0,VALID,82.6619,VALID,-0.0679233,VALID,21.2448,VALID,83,VALID,1.63406,
2004-09-22, 01:39:01,VALID,917.013,VALID,0,VALID,83.1935,VALID,-0.0679233,VALID,21.1864,VALID,106,VALID,1.275,
2004-09-22, 01:40:00,VALID,916.988,VALID,0,VALID,83.4287,VALID,-0.0509425,VALID,21.1188,VALID,92,VALID,2.11179,
2004-09-22, 01:41:00,VALID,916.965,VALID,0,VALID,83.2049,VALID,-0.0339617,VALID,21.0569,VALID,91,VALID,1.79492,
2004-09-22, 01:42:00,VALID,916.949,VALID,0,VALID,83.3918,VALID,0,VALID,21.0539,VALID,89,VALID,1.20889,
2004-09-22, 01:43:01,VALID,916.914,VALID,0,VALID,83.4516,VALID,-0.0169808,VALID,21.0251,VALID,107,VALID,1.09077,
2004-09-22, 01:44:01,VALID,916.893,VALID,0,VALID,83.3855,VALID,-0.0339617,VALID,21.0189,VALID,81,VALID,1.52035,
2004-09-22, 01:45:00,VALID,916.853,VALID,0,VALID,83.5482,VALID,-0.0339617,VALID,21.0187,VALID,96,VALID,2.35065,
2004-09-22, 01:46:00,VALID,916.835,VALID,0,VALID,83.7517,VALID,-0.0169808,VALID,21.0052,VALID,72,VALID,1.45908,
2004-09-22, 01:47:00,VALID,916.832,VALID,0,VALID,84.0225,VALID,-0.0339617,VALID,20.9637,VALID,63,VALID,1.45722,
2004-09-22, 01:48:00,VALID,916.816,VALID,0,VALID,84.2934,VALID,-0.0339617,VALID,20.9215,VALID,104,VALID,1.49455,
2004-09-22, 01:49:00,VALID,916.807,VALID,0,VALID,84.5007,VALID,0,VALID,20.8929,VALID,75,VALID,1.50018,
2004-09-22, 01:50:00,VALID,916.789,VALID,0,VALID,84.5337,VALID,0,VALID,20.8633,VALID,97,VALID,1.55041,
2004-09-22, 01:51:00,VALID,916.754,VALID,0,VALID,84.5312,VALID,-0.0509425,VALID,20.8442,VALID,77,VALID,1.79033,
2004-09-22, 01:52:01,VALID,916.732,VALID,0,VALID,84.2527,VALID,-0.0339617,VALID,20.8372,VALID,78,VALID,1.37919,
2004-09-22, 01:53:00,VALID,916.7,VALID,0,VALID,83.9526,VALID,0,VALID,20.8666,VALID,84,VALID,1.64983,
2004-09-22, 01:54:01,VALID,916.698,VALID,0,VALID,83.8064,VALID,-0.0509425,VALID,20.8994,VALID,100,VALID,2.33164,
2004-09-22, 01:55:01,VALID,916.683,VALID,0,VALID,83.313,VALID,-0.0339617,VALID,20.961,VALID,67,VALID,2.76617,
2004-09-22, 01:56:00,VALID,916.677,VALID,0,VALID,82.5755,VALID,0,VALID,21.0868,VALID,67,VALID,3.1755,
2004-09-22, 01:57:00,VALID,916.697,VALID,0,VALID,82.3364,VALID,-0.0339617,VALID,21.1476,VALID,79,VALID,2.05525,
2004-09-22, 01:58:00,VALID,916.695,VALID,0,VALID,82.283,VALID,-0.0679233,VALID,21.1705,VALID,73,VALID,2.09609,
2004-09-22, 01:59:00,VALID,916.712,VALID,0,VALID,82.6594,VALID,-0.0339617,VALID,21.1608,VALID,107,VALID,1.53242,
2004-09-22, 02:00:00,VALID,916.717,VALID,0,VALID,82.9519,VALID,-0.0679233,VALID,21.1123,VALID,97,VALID,1.24858,
2004-09-22, 02:01:00,VALID,916.71,VALID,0,VALID,83.196,VALID,-0.0339617,VALID,21.0744,VALID,77,VALID,1.45033,
2004-09-22, 02:02:01,VALID,916.698,VALID,0,VALID,83.5266,VALID,0,VALID,21.0259,VALID,53,VALID,1.59896,
2004-09-22, 02:03:01,VALID,916.702,VALID,0,VALID,83.8165,VALID,-0.0509425,VALID,20.9417,VALID,70,VALID,1.28087,
2004-09-22, 02:04:00,VALID,916.674,VALID,0,VALID,83.9958,VALID,-0.0679233,VALID,20.8967,VALID,81,VALID,1.71312,
2004-09-22, 02:05:00,VALID,916.667,VALID,0,VALID,84.0632,VALID,-0.0679233,VALID,20.8937,VALID,78,VALID,1.05562,
2004-09-22, 02:06:01,VALID,916.669,VALID,0,VALID,84.02,VALID,-0.0339617,VALID,20.8867,VALID,90,VALID,1.90536,
2004-09-22, 02:07:01,VALID,916.673,VALID,0,VALID,84.1065,VALID,-0.0339617,VALID,20.9064,VALID,62,VALID,2.02162,
2004-09-22, 02:08:00,VALID,916.665,VALID,0,VALID,84.2921,VALID,-0.0849042,VALID,20.8542,VALID,53,VALID,2.10398,
2004-09-22, 02:09:01,VALID,916.677,VALID,0,VALID,84.3023,VALID,-0.0339617,VALID,20.8358,VALID,59,VALID,2.38045,
2004-09-22, 02:10:01,VALID,916.685,VALID,0,VALID,83.8839,VALID,-0.0509425,VALID,20.838,VALID,65,VALID,2.53906,
2004-09-22, 02:11:00,VALID,916.707,VALID,0,VALID,83.973,VALID,-0.0339617,VALID,20.8805,VALID,91,VALID,1.18527,
2004-09-22, 02:12:01,VALID,916.686,VALID,0,VALID,83.7657,VALID,-0.0509425,VALID,20.8937,VALID,117,VALID,1.7681,
2004-09-22, 02:13:00,VALID,916.688,VALID,0,VALID,83.6805,VALID,-0.0169808,VALID,20.929,VALID,131,VALID,1.91292,
2004-09-22, 02:14:01,VALID,916.683,VALID,0,VALID,83.7746,VALID,-0.0849042,VALID,20.9521,VALID,120,VALID,1.51162,
2004-09-22, 02:15:00,VALID,916.707,VALID,0,VALID,83.978,VALID,-0.0339617,VALID,20.9126,VALID,80,VALID,1.22983,
2004-09-22, 02:16:00,VALID,916.699,VALID,0,VALID,84.2273,VALID,-0.0339617,VALID,20.8873,VALID,88,VALID,1.49272,
2004-09-22, 02:17:01,VALID,916.675,VALID,0,VALID,84.0086,VALID,-0.0169808,VALID,20.8741,VALID,73,VALID,1.99758,
2004-09-22, 02:18:00,VALID,916.686,VALID,0,VALID,83.814,VALID,0,VALID,20.9026,VALID,79,VALID,1.55279,
2004-09-22, 02:19:01,VALID,916.684,VALID,0,VALID,83.8623,VALID,0,VALID,20.9061,VALID,78,VALID,1.27539,
2004-09-22, 02:20:01,VALID,916.694,VALID,0,VALID,84.109,VALID,-0.0509425,VALID,20.8736,VALID,63,VALID,1.3293,
2004-09-22, 02:21:00,VALID,916.686,VALID,0,VALID,84.151,VALID,-0.0509425,VALID,20.8283,VALID,75,VALID,1.32969,
2004-09-22, 02:22:01,VALID,916.682,VALID,0,VALID,84.2807,VALID,-0.0339617,VALID,20.8055,VALID,46,VALID,0.99782,
2004-09-22, 02:23:01,VALID,916.671,VALID,0,VALID,84.3875,VALID,0,VALID,20.7831,VALID,57,VALID,1.26135,
2004-09-22, 02:24:00,VALID,916.663,VALID,0,VALID,84.6266,VALID,-0.0509425,VALID,20.7379,VALID,67,VALID,1.14753,
2004-09-22, 02:25:00,VALID,916.672,VALID,0,VALID,84.4765,VALID,-0.0679233,VALID,20.719,VALID,81,VALID,1.81037,
2004-09-22, 02:26:00,VALID,916.682,VALID,0,VALID,84.1281,VALID,0,VALID,20.796,VALID,84,VALID,1.46257,
2004-09-22, 02:27:00,VALID,916.681,VALID,0,VALID,84.3074,VALID,-0.0169808,VALID,20.8251,VALID,107,VALID,0.872514,
2004-09-22, 02:28:00,VALID,916.704,VALID,0,VALID,84.479,VALID,0,VALID,20.796,VALID,124,VALID,1.08934,
2004-09-22, 02:29:00,VALID,916.73,VALID,0,VALID,84.8923,VALID,-0.0169808,VALID,20.7543,VALID,95,VALID,0.910156,
2004-09-22, 02:30:00,VALID,916.75,VALID,0,VALID,85.3437,VALID,0,VALID,20.6798,VALID,77,VALID,1.00484,
2004-09-22, 02:31:00,VALID,916.765,VALID,0,VALID,85.6566,VALID,0,VALID,20.6087,VALID,71,VALID,0.969295,
2004-09-22, 02:32:01,VALID,916.759,VALID,0,VALID,85.991,VALID,0,VALID,20.5473,VALID,62,VALID,0.938743,
2004-09-22, 02:33:01,VALID,916.75,VALID,0,VALID,86.3483,VALID,0,VALID,20.4795,VALID,75,VALID,0.836111,
2004-09-22, 02:34:00,VALID,916.75,VALID,0,VALID,86.5836,VALID,0.0169808,VALID,20.4308,VALID,85,VALID,0.860176,
2004-09-22, 02:35:01,VALID,916.748,VALID,0,VALID,86.7463,VALID,-0.0169808,VALID,20.405,VALID,81,VALID,1.05087,
2004-09-22, 02:36:00,VALID,916.731,VALID,0,VALID,86.8887,VALID,0,VALID,20.3692,VALID,92,VALID,1.03311,
2004-09-22, 02:37:00,VALID,916.72,VALID,0,VALID,86.8887,VALID,0.0169808,VALID,20.3856,VALID,73,VALID,1.51172,
2004-09-22, 02:38:00,VALID,916.688,VALID,0,VALID,86.8926,VALID,0.0169808,VALID,20.4052,VALID,95,VALID,1.08166,
2004-09-22, 02:39:01,VALID,916.664,VALID,0,VALID,86.9956,VALID,0.0169808,VALID,20.3891,VALID,84,VALID,0.821766,
2004-09-22, 02:40:00,VALID,916.639,VALID,0,VALID,87.1253,VALID,0,VALID,20.3635,VALID,82,VALID,0.684126,
2004-09-22, 02:41:01,VALID,916.593,VALID,0,VALID,87.3224,VALID,-0.0169808,VALID,20.3347,VALID,52,VALID,0.865189,
2004-09-22, 02:42:01,VALID,916.571,VALID,0,VALID,87.405,VALID,0,VALID,20.2892,VALID,47,VALID,0.737216,
2004-09-22, 02:43:01,VALID,916.539,VALID,0,VALID,87.6466,VALID,0,VALID,20.2601,VALID,71,VALID,0.941778,
2004-09-22, 02:44:00,VALID,916.528,VALID,0,VALID,87.7789,VALID,0,VALID,20.2311,VALID,75,VALID,1.07832,
2004-09-22, 02:45:00,VALID,916.521,VALID,0,VALID,87.5754,VALID,0,VALID,20.2211,VALID,89,VALID,1.36814,
2004-09-22, 02:46:00,VALID,916.524,VALID,0,VALID,87.5665,VALID,0,VALID,20.2249,VALID,66,VALID,0.991806,
2004-09-22, 02:47:00,VALID,916.533,VALID,0,VALID,87.4139,VALID,0.0169808,VALID,20.1856,VALID,57,VALID,1.31613,
2004-09-22, 02:48:00,VALID,916.542,VALID,0,VALID,87.1799,VALID,0.0169808,VALID,20.202,VALID,83,VALID,1.26456,
2004-09-22, 02:49:01,VALID,916.551,VALID,0,VALID,87.3834,VALID,0.0169808,VALID,20.2246,VALID,117,VALID,1.36682,
2004-09-22, 02:50:00,VALID,916.541,VALID,0,VALID,87.2384,VALID,0,VALID,20.2505,VALID,77,VALID,1.02287,
2004-09-22, 02:51:01,VALID,916.539,VALID,0,VALID,87.2715,VALID,0.0169808,VALID,20.2798,VALID,109,VALID,0.760298,
2004-09-22, 02:52:01,VALID,916.523,VALID,0,VALID,87.3491,VALID,0.0169808,VALID,20.2855,VALID,129,VALID,0.656068,
2004-09-22, 02:53:01,VALID,916.528,VALID,0,VALID,87.5411,VALID,0,VALID,20.2758,VALID,129,VALID,1.04637,
2004-09-22, 02:54:00,VALID,916.541,VALID,0,VALID,87.7445,VALID,0.0169808,VALID,20.2341,VALID,108,VALID,1.31403,
2004-09-22, 02:55:00,VALID,916.533,VALID,0,VALID,87.9149,VALID,0,VALID,20.1859,VALID,68,VALID,1.04688,
2004-09-22, 02:56:00,VALID,916.519,VALID,0,VALID,87.9327,VALID,0,VALID,20.1794,VALID,61,VALID,0.914063,
2004-09-22, 02:57:00,VALID,916.516,VALID,0,VALID,88.023,VALID,0,VALID,20.1638,VALID,77,VALID,0.985899,
2004-09-22, 02:58:01,VALID,916.514,VALID,0,VALID,88.0167,VALID,0,VALID,20.1412,VALID,103,VALID,1.03088,
2004-09-22, 02:59:01,VALID,916.493,VALID,0,VALID,87.8424,VALID,0,VALID,20.1509,VALID,73,VALID,1.15253,
2004-09-22, 03:00:01,VALID,916.491,VALID,0,VALID,87.2753,VALID,-0.0169808,VALID,20.2023,VALID,84,VALID,1.3837,
2004-09-22, 03:01:01,VALID,916.487,VALID,0,VALID,86.8442,VALID,0,VALID,20.276,VALID,85,VALID,1.02762,
2004-09-22, 03:02:01,VALID,916.489,VALID,0,VALID,86.7425,VALID,0,VALID,20.3252,VALID,91,VALID,1.21555,
2004-09-22, 03:03:00,VALID,916.485,VALID,0,VALID,86.815,VALID,0.0169808,VALID,20.3352,VALID,79,VALID,1.04013,
2004-09-22, 03:04:01,VALID,916.498,VALID,0,VALID,87.035,VALID,0,VALID,20.3185,VALID,107,VALID,1.05069,
2004-09-22, 03:05:01,VALID,916.504,VALID,0,VALID,87.0159,VALID,-0.0169808,VALID,20.3441,VALID,114,VALID,1.24163,
2004-09-22, 03:06:01,VALID,916.491,VALID,0,VALID,86.7387,VALID,0,VALID,20.3702,VALID,81,VALID,1.27489,
2004-09-22, 03:07:01,VALID,916.483,VALID,0,VALID,86.5136,VALID,0,VALID,20.4192,VALID,91,VALID,1.14499,
2004-09-22, 03:08:01,VALID,916.468,VALID,0,VALID,86.3089,VALID,0,VALID,20.4318,VALID,130,VALID,0.845052,
2004-09-22, 03:09:01,VALID,916.469,VALID,0,VALID,85.9999,VALID,0,VALID,20.4835,VALID,90,VALID,1.78125,
2004-09-22, 03:10:01,VALID,916.478,VALID,0,VALID,85.8346,VALID,0,VALID,20.5387,VALID,98,VALID,1.54462,
2004-09-22, 03:11:01,VALID,916.458,VALID,0,VALID,85.2077,VALID,0,VALID,20.5861,VALID,105,VALID,2.48971,
2004-09-22, 03:12:01,VALID,916.459,VALID,0,VALID,84.9012,VALID,0.0339617,VALID,20.6798,VALID,74,VALID,1.22542,
2004-09-22, 03:13:01,VALID,916.475,VALID,0,VALID,85.0398,VALID,0.0169808,VALID,20.7093,VALID,82,VALID,1.20389,
2004-09-22, 03:14:01,VALID,916.461,VALID,0,VALID,85.1911,VALID,0.0339617,VALID,20.6805,VALID,68,VALID,1.45821,
2004-09-22, 03:15:01,VALID,916.452,VALID,0,VALID,85.27,VALID,0,VALID,20.638,VALID,88,VALID,1.36179,
2004-09-22, 03:16:01,VALID,916.424,VALID,0,VALID,85.3476,VALID,0,VALID,20.6254,VALID,47,VALID,0.874306,
2004-09-22, 03:17:01,VALID,916.409,VALID,0,VALID,85.2916,VALID,-0.0169808,VALID,20.5955,VALID,53,VALID,1.72711,
2004-09-22, 03:18:00,VALID,916.397,VALID,0,VALID,85.2751,VALID,0,VALID,20.602,VALID,60,VALID,1.37163,
2004-09-22, 03:19:01,VALID,916.396,VALID,0,VALID,85.2763,VALID,0,VALID,20.6028,VALID,74,VALID,1.50981,
2004-09-22, 03:20:01,VALID,916.375,VALID,0,VALID,85.3539,VALID,0,VALID,20.603,VALID,60,VALID,1.1707,
2004-09-22, 03:21:01,VALID,916.363,VALID,0,VALID,85.5319,VALID,-0.0169808,VALID,20.5734,VALID,63,VALID,1.0099,
2004-09-22, 03:22:01,VALID,916.338,VALID,0,VALID,85.4035,VALID,0,VALID,20.5541,VALID,90,VALID,1.48319,
2004-09-22, 03:23:01,VALID,916.32,VALID,0,VALID,85.3437,VALID,0,VALID,20.5734,VALID,99,VALID,1.03622,
2004-09-22, 03:24:01,VALID,916.332,VALID,0,VALID,85.4582,VALID,0,VALID,20.596,VALID,108,VALID,0.61814,
2004-09-22, 03:25:01,VALID,916.318,VALID,0,VALID,85.5421,VALID,0,VALID,20.5993,VALID,86,VALID,0.710211,
2004-09-22, 03:26:01,VALID,916.292,VALID,0,VALID,85.4099,VALID,0,VALID,20.607,VALID,101,VALID,1.32847,
2004-09-22, 03:27:01,VALID,916.295,VALID,0,VALID,85.5942,VALID,-0.0339617,VALID,20.6132,VALID,79,VALID,0.584449,
2004-09-22, 03:28:01,VALID,916.3,VALID,0,VALID,85.4391,VALID,-0.0169808,VALID,20.5936,VALID,107,VALID,1.1161,
2004-09-22, 03:29:01,VALID,916.284,VALID,0,VALID,85.4061,VALID,-0.0339617,VALID,20.6428,VALID,114,VALID,0.983665,
2004-09-22, 03:30:01,VALID,916.281,VALID,0,VALID,85.3476,VALID,-0.0169808,VALID,20.6453,VALID,117,VALID,0.988991,
2004-09-22, 03:31:01,VALID,916.293,VALID,0,VALID,85.5281,VALID,-0.0339617,VALID,20.6555,VALID,73,VALID,0.713655,
2004-09-22, 03:32:01,VALID,916.276,VALID,0,VALID,85.6616,VALID,-0.0169808,VALID,20.6391,VALID,98,VALID,1.13681,
2004-09-22, 03:33:01,VALID,916.273,VALID,0,VALID,85.7545,VALID,-0.0509425,VALID,20.6068,VALID,92,VALID,0.808854,
2004-09-22, 03:34:01,VALID,916.262,VALID,0,VALID,85.6553,VALID,-0.0339617,VALID,20.5906,VALID,65,VALID,0.843369,
2004-09-22, 03:35:01,VALID,916.237,VALID,0,VALID,85.8244,VALID,-0.0679233,VALID,20.5971,VALID,65,VALID,0.9288,
2004-09-22, 03:36:01,VALID,916.23,VALID,0,VALID,85.6705,VALID,-0.0169808,VALID,20.5938,VALID,64,VALID,0.854992,